This demonstration page uses our WeatherBlox Daily Observations layout. Learn more.

Left ArrowRight Arrow

Hourly Observations for March 23, 2020

Temp ( °F °C ) Dew Point ( °F °C ) Humidity (%) Winds ( mph kmh ) Pressure ( in mb ) Visibility ( mi km ) Precip ( " mm )
12:11 am 00:11 Cloudy 39 4 37 3 93 93 SE 8 13 30.15 1021 10 16 0.00 0.00
12:41 am 00:41 Cloudy 39 4 37 3 93 93 SE 6 9 30.16 1021 9 14 0.00 0.00
12:56 am 00:56 Cloudy with Mist and Fog 38 3.6 37 2.7 94 94 Calm 30.16 1021 6 10 0.00 0.00
1:26 am 01:26 Cloudy with Mist and Fog 39 4 37 3 93 93 SE 7 11 30.15 1021 5 8 0.00 0.00
1:56 am 01:56 Cloudy 38 3.5 37 2.6 94 94 SE 3 6 30.15 1021 7 11 0.00 0.00
2:56 am 02:56 Cloudy 38 3.5 37 2.6 94 94 SE 5 7 30.14 1021 9 14 0.00 0.00
3:26 am 03:26 Cloudy 39 4 37 3 93 93 SE 3 6 30.14 1021 10 16 0.00 0.00
3:41 am 03:41 Cloudy 39 4 37 3 93 93 SE 5 7 30.14 1021 10 16 0.00 0.00
3:56 am 03:56 Cloudy 38 3.6 37 2.7 94 94 Calm 30.14 1021 10 16 0.00 0.00
4:41 am 04:41 Cloudy 39 4 37 3 93 93 Calm 30.13 1020 9 14 0.00 0.00
4:56 am 04:56 Cloudy 38 3.6 37 2.7 94 94 Calm 30.13 1020 8 13 0.00 0.00
5:11 am 05:11 Cloudy 39 4 37 3 93 93 Calm 30.13 1020 7 11 0.00 0.00
5:56 am 05:56 Cloudy 39 3.7 37 3 95 95 SSE 7 11 30.13 1020 7 11 0.00 0.00
6:11 am 06:11 Cloudy 39 4 37 3 93 93 SSE 6 9 30.13 1020 8 13 0.00 0.00
6:56 am 06:56 Cloudy with Mist and Fog 39 3.7 37 3 95 95 ESE 6 9 30.14 1021 6 10 0.00 0.00
7:56 am 07:56 Cloudy with Mist and Fog 39 4 38 3.3 95 95 ESE 7 11 30.16 1021 3 4 0.00 0.00
8:17 am 08:17 Cloudy with Mist and Fog 39 4 37 3 93 93 ESE 6 9 30.16 1021 5 8 0.00 0.00
8:56 am 08:56 Cloudy 40 4.5 38 3.6 94 94 ESE 6 9 30.17 1022 10 16 0.00 0.00
9:11 am 09:11 Cloudy 41 5 39 4 93 93 SE 7 11 30.17 1022 10 16 0.00 0.00
9:56 am 09:56 Cloudy 42 5.3 40 4.3 93 93 SE 6 9 30.16 1021 10 16 0.00 0.00
10:26 am 10:26 Cloudy 43 6 41 5 93 93 SE 7 11 30.16 1021 10 16 0.00 0.00
10:56 am 10:56 Cloudy 44 6.6 41 5.2 91 91 SE 7 11 30.16 1021 10 16 0.00 0.00
11:41 am 11:41 Cloudy 45 7 43 6 93 93 SE 8 13 30.16 1021 10 16 0.00 0.00
11:56 am 11:56 Cloudy 45 7.1 42 5.6 90 90 SE 9 15 30.16 1021 10 16 0.00 0.00
12:26 pm 12:26 Cloudy 46 8 43 6 87 87 SE 10 17 30.16 1021 10 16 0.00 0.00
12:41 pm 12:41 Cloudy 46 8 43 6 87 87 ESE 10 17 30.15 1021 10 16 0.00 0.00
12:56 pm 12:56 Cloudy 47 8.4 43 6 85 85 ESE 9 15 30.14 1021 10 16 0.00 0.00
1:26 pm 13:26 Cloudy 48 9 43 6 82 82 ESE 12 19 30.13 1020 10 16 0.00 0.00
1:56 pm 13:56 Cloudy 48 8.9 43 6 82 82 SSE 9 15 30.12 1020 10 16 0.00 0.00
2:35 pm 14:35 Cloudy 48 9 43 6 82 82 SSE 8 13 30.12 1020 10 16 0.00 0.00
2:56 pm 14:56 Cloudy 48 9 43 6.3 83 83 SSE 9 15 30.11 1020 10 16 0.00 0.00
3:11 pm 15:11 Cloudy 48 9 45 7 87 87 SE 8 13 30.10 1019 10 16 0.00 0.00
3:56 pm 15:56 Cloudy 49 9.5 44 6.6 82 82 SE 7 11 30.08 1019 10 16 0.00 0.00
4:56 pm 16:56 Cloudy 49 9.6 43 6.1 79 79 SSE 12 19 30.07 1018 10 16 0.00 0.00
5:56 pm 17:56 Cloudy 49 9.6 43 6.3 80 80 SE 10 17 30.06 1018 10 16 0.00 0.00
6:56 pm 18:56 Cloudy 49 9.3 44 6.4 82 82 E 9 15 30.05 1018 10 16 0.00 0.00
7:56 pm 19:56 Cloudy 48 8.9 43 6.2 83 83 SE 12 19 30.05 1018 10 16 0.00 0.00
8:56 pm 20:56 Cloudy 47 8.6 43 6 84 84 ESE 9 15 30.05 1018 10 16 0.00 0.00
9:56 pm 21:56 Cloudy 46 7.7 42 5.5 86 86 ESE 9 15 30.06 1018 10 16 0.00 0.00
10:56 pm 22:56 Mostly Cloudy 45 7.3 42 5.4 88 88 ESE 12 19 30.05 1018 10 16 0.00 0.00
11:56 pm 23:56 Cloudy 44 6.6 41 5.1 90 90 ESE 9 15 30.04 1017 10 16 0.00 0.00

Powered by AerisWeather